TimeMST,TemperatureF,Dew PointF,Humidity,Sea Level PressureIn,VisibilityMPH,Wind Direction,Wind SpeedMPH,Gust SpeedMPH,PrecipitationIn,Events,Conditions,WindDirDegrees,DateUTC
12:53 AM,34.0,30.0,85,30.31,10.0,SW,5.8,-,N/A,,Overcast,230,2013-01-17 07:53:00
1:53 AM,33.8,30.2,87,30.26,10.0,West,8.1,-,N/A,,Overcast,270,2013-01-17 08:53:00
2:53 AM,34.0,30.0,85,30.35,10.0,West,8.1,-,N/A,,Overcast,270,2013-01-17 09:53:00
3:21 AM,33.8,30.2,87,30.28,10.0,West,4.6,-,N/A,,Overcast,260,2013-01-17 10:21:00
3:48 AM,33.8,30.2,87,30.27,10.0,West,3.5,-,N/A,,Overcast,280,2013-01-17 10:48:00
3:53 AM,33.1,30.0,89,30.35,10.0,West,4.6,-,N/A,,Overcast,280,2013-01-17 10:53:00
4:10 AM,33.8,30.2,87,30.27,10.0,Calm,Calm,-,N/A,,Overcast,0,2013-01-17 11:10:00
4:40 AM,33.8,30.2,87,30.27,10.0,Calm,Calm,-,N/A,,Overcast,0,2013-01-17 11:40:00
4:53 AM,33.8,30.2,87,30.27,10.0,Calm,Calm,-,N/A,,Overcast,0,2013-01-17 11:53:00
5:53 AM,30.9,28.9,92,30.32,10.0,ESE,4.6,-,N/A,,Overcast,120,2013-01-17 12:53:00
6:53 AM,30.9,27.0,85,30.31,10.0,East,6.9,-,N/A,,Overcast,80,2013-01-17 13:53:00
7:53 AM,28.9,25.0,85,30.33,10.0,East,5.8,-,N/A,,Overcast,80,2013-01-17 14:53:00
8:13 AM,28.4,24.8,86,30.25,10.0,East,4.6,-,N/A,,Overcast,90,2013-01-17 15:13:00
8:53 AM,28.9,26.1,89,30.31,10.0,East,5.8,-,N/A,,Overcast,80,2013-01-17 15:53:00
9:03 AM,30.2,26.6,86,30.23,10.0,East,4.6,-,N/A,,Overcast,80,2013-01-17 16:03:00
9:53 AM,30.9,27.0,85,30.29,10.0,ENE,6.9,-,N/A,,Overcast,60,2013-01-17 16:53:00
10:06 AM,30.2,26.6,86,30.21,10.0,ENE,6.9,-,N/A,,Mostly Cloudy,60,2013-01-17 17:06:00
10:53 AM,33.8,28.4,81,30.18,10.0,ENE,6.9,-,N/A,,Scattered Clouds,60,2013-01-17 17:53:00
11:53 AM,33.1,28.9,85,30.20,10.0,East,6.9,-,N/A,,Clear,80,2013-01-17 18:53:00
12:53 PM,35.1,27.0,72,30.15,10.0,SSW,4.6,-,N/A,,Overcast,200,2013-01-17 19:53:00
1:53 PM,37.0,27.0,67,30.11,10.0,West,3.5,-,N/A,,Mostly Cloudy,270,2013-01-17 20:53:00
2:53 PM,37.0,28.0,70,30.08,10.0,WSW,3.5,-,N/A,,Clear,250,2013-01-17 21:53:00
3:53 PM,36.0,28.9,76,30.07,10.0,NNE,4.6,-,N/A,,Mostly Cloudy,30,2013-01-17 22:53:00
4:53 PM,32.0,27.0,82,30.05,10.0,WSW,6.9,-,N/A,,Unknown,240,2013-01-17 23:53:00
5:53 PM,32.0,27.0,82,30.03,10.0,WSW,6.9,-,N/A,,Clear,240,2013-01-18 00:53:00
6:53 PM,30.0,26.1,85,30.01,10.0,WSW,4.6,-,N/A,,Clear,240,2013-01-18 01:53:00
7:53 PM,28.0,25.0,88,29.96,10.0,WSW,4.6,-,N/A,,Clear,240,2013-01-18 02:53:00
8:53 PM,28.0,25.0,88,29.93,10.0,NW,3.5,-,N/A,,Clear,310,2013-01-18 03:53:00
9:53 PM,28.9,24.1,82,29.91,10.0,WSW,5.8,-,N/A,,Clear,250,2013-01-18 04:53:00
10:53 PM,28.0,23.0,81,29.89,10.0,West,8.1,-,N/A,,Clear,260,2013-01-18 05:53:00
11:53 PM,28.0,21.9,78,29.89,10.0,WSW,8.1,-,N/A,,Clear,250,2013-01-18 06:53:00